| time (UTC) | temp C | wind direction | speed KPH | gust KPH | rain 1hr cm | rain 24hr cm | rain mn cm | humidity % | barometer mb |
| 20260507140505 | 11 | 68 | 4.8 | 16.1 | 0.00 | 0.28 | 0.00 | 56 | 1012.8 |
| 20260507140006 | 11 | 330 | 4.8 | 16.1 | 0.00 | 0.30 | 0.00 | 54 | 1012.8 |
| 20260507135504 | 11 | 315 | 4.8 | 11.3 | 0.00 | 0.30 | 0.00 | 58 | 1012.9 |
| 20260507135007 | 11 | 321 | 4.8 | 11.3 | 0.00 | 0.33 | 0.00 | 57 | 1012.9 |
| 20260507134505 | 11 | 287 | 3.2 | 11.3 | 0.00 | 0.33 | 0.00 | 58 | 1013.1 |
| 20260507134004 | 10 | 270 | 4.8 | 14.5 | 0.00 | 0.36 | 0.00 | 60 | 1013.1 |
| 20260507133505 | 10 | 337 | 6.4 | 14.5 | 0.00 | 0.36 | 0.00 | 58 | 1013.1 |
| 20260507133005 | 10 | 317 | 6.4 | 16.1 | 0.00 | 0.38 | 0.00 | 60 | 1013.2 |
| 20260507132503 | 10 | 285 | 6.4 | 16.1 | 0.00 | 0.38 | 0.00 | 59 | 1013.2 |
| 20260507132005 | 10 | 310 | 6.4 | 14.5 | 0.00 | 0.41 | 0.00 | 61 | 1013.1 |
| 20260507131504 | 10 | 333 | 6.4 | 14.5 | 0.00 | 0.41 | 0.00 | 64 | 1013.2 |
| 20260507131005 | 10 | 317 | 6.4 | 14.5 | 0.00 | 0.43 | 0.00 | 61 | 1013.2 |
| 20260507130505 | 10 | 355 | 6.4 | 14.5 | 0.00 | 0.43 | 0.00 | 62 | 1013.3 |
| 20260507130005 | 10 | 327 | 6.4 | 14.5 | 0.00 | 0.46 | 0.00 | 62 | 1013.3 |
| 20260507125506 | 10 | 332 | 6.4 | 16.1 | 0.00 | 0.48 | 0.00 | 59 | 1013.4 |
| 20260507125004 | 10 | 315 | 6.4 | 16.1 | 0.00 | 0.48 | 0.00 | 62 | 1013.2 |
| 20260507124505 | 10 | 319 | 4.8 | 14.5 | 0.00 | 0.51 | 0.00 | 62 | 1013.2 |
| 20260507124005 | 9 | 326 | 3.2 | 11.3 | 0.00 | 0.53 | 0.00 | 65 | 1013.2 |
| 20260507123504 | 9 | 328 | 4.8 | 12.9 | 0.00 | 0.53 | 0.00 | 66 | 1013.1 |
| 20260507123005 | 9 | 326 | 4.8 | 12.9 | 0.00 | 0.56 | 0.00 | 67 | 1012.8 |
| 20260507122503 | 9 | 347 | 4.8 | 14.5 | 0.00 | 0.56 | 0.00 | 69 | 1012.8 |
| 20260507121956 | 9 | 316 | 6.4 | 14.5 | 0.00 | 0.58 | 0.00 | 68 | 1012.8 |
| 20260507121456 | 9 | 340 | 4.8 | 12.9 | 0.00 | 0.58 | 0.00 | 68 | 1012.7 |
| 20260507120957 | 9 | 312 | 4.8 | 12.9 | 0.00 | 0.58 | 0.00 | 69 | 1012.7 |
| 20260507120457 | 9 | 328 | 3.2 | 9.7 | 0.00 | 0.61 | 0.00 | 69 | 1012.9 |
| 20260507115957 | 9 | 282 | 3.2 | 6.4 | 0.00 | 0.61 | 0.00 | 74 | 1012.8 |
| 20260507115457 | 8 | 280 | 3.2 | 12.9 | 0.00 | 0.64 | 0.00 | 71 | 1013.1 |
| 20260507114958 | 8 | 278 | 3.2 | 12.9 | 0.00 | 0.66 | 0.00 | 70 | 1013.1 |
| 20260507114457 | 8 | 255 | 3.2 | 11.3 | 0.00 | 0.66 | 0.00 | 69 | 1013.1 |
| 20260507113957 | 8 | 314 | 3.2 | 6.4 | 0.00 | 0.69 | 0.00 | 67 | 1013.2 |
| 20260507113456 | 8 | 324 | 4.8 | 12.9 | 0.00 | 0.69 | 0.00 | 66 | 1013.1 |
| 20260507112957 | 8 | 331 | 3.2 | 12.9 | 0.00 | 0.69 | 0.00 | 66 | 1013.1 |
| 20260507112456 | 8 | 327 | 3.2 | 9.7 | 0.00 | 0.71 | 0.00 | 70 | 1012.9 |
| 20260507111956 | 8 | 328 | 3.2 | 9.7 | 0.00 | 0.74 | 0.00 | 68 | 1013.1 |
| 20260507111456 | 8 | 291 | 3.2 | 8.0 | 0.00 | 0.76 | 0.00 | 67 | 1012.8 |
| 20260507110956 | 8 | 279 | 3.2 | 9.7 | 0.00 | 0.76 | 0.00 | 68 | 1012.8 |
| 20260507110453 | 8 | 334 | 4.8 | 9.7 | 0.00 | 0.79 | 0.00 | 66 | 1012.8 |
| 20260507105948 | 8 | 294 | 4.8 | 11.3 | 0.00 | 0.79 | 0.00 | 68 | 1012.7 |
| 20260507105449 | 8 | 287 | 3.2 | 12.9 | 0.00 | 0.79 | 0.00 | 68 | 1012.6 |
| 20260507104949 | 8 | 255 | 3.2 | 12.9 | 0.00 | 0.79 | 0.00 | 68 | 1012.7 |
| 20260507104449 | 8 | 261 | 3.2 | 8.0 | 0.00 | 0.79 | 0.00 | 68 | 1012.5 |
| 20260507103949 | 8 | 309 | 3.2 | 12.9 | 0.00 | 0.79 | 0.00 | 67 | 1012.5 |
| 20260507103446 | 8 | 269 | 1.6 | 12.9 | 0.00 | 0.79 | 0.00 | 67 | 1012.3 |
| 20260507102946 | 8 | 356 | 1.6 | 11.3 | 0.00 | 0.79 | 0.00 | 67 | 1012.4 |
| 20260507102449 | 8 | 30 | 1.6 | 11.3 | 0.00 | 0.79 | 0.00 | 67 | 1012.4 |
| 20260507101947 | 8 | 351 | 1.6 | 12.9 | 0.00 | 0.79 | 0.00 | 67 | 1012.3 |
| 20260507101448 | 8 | 351 | 3.2 | 14.5 | 0.00 | 0.79 | 0.00 | 66 | 1012.2 |
| 20260507100944 | 8 | 2 | 3.2 | 14.5 | 0.00 | 0.79 | 0.00 | 68 | 1012.2 |
| 20260507100446 | 8 | 323 | 3.2 | 11.3 | 0.00 | 0.79 | 0.00 | 68 | 1012.1 |
| 20260507095945 | 8 | 267 | 4.8 | 11.3 | 0.00 | 0.79 | 0.00 | 70 | 1012.0 |
| 20260507095448 | 8 | 295 | 4.8 | 11.3 | 0.00 | 0.79 | 0.00 | 68 | 1011.9 |
| 20260507094945 | 8 | 319 | 3.2 | 9.7 | 0.00 | 0.79 | 0.00 | 70 | 1011.9 |
| 20260507094438 | 8 | 6 | 4.8 | 12.9 | 0.00 | 0.79 | 0.00 | 70 | 1011.9 |
| 20260507093938 | 8 | 305 | 4.8 | 12.9 | 0.00 | 0.79 | 0.00 | 70 | 1011.9 |
| 20260507093438 | 8 | 313 | 4.8 | 11.3 | 0.00 | 0.79 | 0.00 | 72 | 1011.9 |
| 20260507092938 | 8 | 313 | 3.2 | 11.3 | 0.00 | 0.79 | 0.00 | 72 | 1011.9 |
| 20260507092436 | 8 | 332 | 3.2 | 12.9 | 0.00 | 0.79 | 0.00 | 72 | 1012.0 |
| 20260507091935 | 9 | 355 | 3.2 | 14.5 | 0.00 | 0.79 | 0.00 | 73 | 1012.0 |
| 20260507091435 | 9 | 329 | 3.2 | 14.5 | 0.00 | 0.79 | 0.00 | 74 | 1012.0 |
| 20260507090934 | 9 | 330 | 3.2 | 9.7 | 0.00 | 0.79 | 0.00 | 74 | 1012.0 |
| 20260507090434 | 9 | 331 | 4.8 | 14.5 | 0.00 | 0.79 | 0.00 | 76 | 1012.0 |
| 20260507085938 | 9 | 328 | 4.8 | 14.5 | 0.00 | 0.79 | 0.00 | 75 | 1012.1 |
| 20260507085434 | 9 | 332 | 4.8 | 11.3 | 0.00 | 0.79 | 0.00 | 78 | 1011.9 |
| 20260507084934 | 9 | 284 | 4.8 | 11.3 | 0.00 | 0.79 | 0.00 | 78 | 1011.9 |
| 20260507084436 | 9 | 290 | 3.2 | 9.7 | 0.00 | 0.79 | 0.00 | 78 | 1011.9 |
| 20260507083936 | 9 | 276 | 4.8 | 9.7 | 0.00 | 0.79 | 0.00 | 77 | 1011.8 |
| 20260507083436 | 9 | 307 | 4.8 | 12.9 | 0.00 | 0.79 | 0.00 | 77 | 1011.8 |
| 20260507082935 | 9 | 342 | 4.8 | 16.1 | 0.00 | 0.79 | 0.00 | 77 | 1011.9 |
| 20260507082434 | 9 | 342 | 6.4 | 17.7 | 0.00 | 0.79 | 0.00 | 76 | 1011.8 |
| 20260507081934 | 9 | 0 | 6.4 | 17.7 | 0.00 | 0.79 | 0.00 | 76 | 1011.7 |
| 20260507081444 | 9 | 334 | 8.0 | 20.9 | 0.00 | 0.79 | 0.00 | 76 | 1011.7 |
| 20260507080937 | 9 | 346 | 8.0 | 20.9 | 0.00 | 0.79 | 0.00 | 76 | 1011.6 |
| 20260507080438 | 10 | 351 | 8.0 | 20.9 | 0.00 | 0.79 | 0.00 | 75 | 1011.4 |
| 20260507075935 | 10 | 322 | 6.4 | 20.9 | 0.00 | 0.79 | 0.00 | 75 | 1011.2 |
| 20260507075435 | 10 | 337 | 4.8 | 12.9 | 0.00 | 0.79 | 0.00 | 77 | 1011.1 |
| 20260507074933 | 10 | 353 | 3.2 | 14.5 | 0.00 | 0.79 | 0.00 | 78 | 1011.1 |
| 20260507074436 | 10 | 286 | 4.8 | 14.5 | 0.00 | 0.79 | 0.00 | 78 | 1011.1 |
| 20260507073933 | 10 | 336 | 4.8 | 12.9 | 0.00 | 0.79 | 0.00 | 79 | 1011.1 |
| 20260507073433 | 10 | 3 | 3.2 | 12.9 | 0.00 | 0.79 | 0.00 | 80 | 1011.1 |
| 20260507072937 | 10 | 299 | 3.2 | 16.1 | 0.00 | 0.79 | 0.00 | 81 | 1011.0 |
| 20260507072433 | 10 | 317 | 4.8 | 16.1 | 0.00 | 0.79 | 0.00 | 81 | 1011.0 |
| 20260507071934 | 10 | 247 | 3.2 | 11.3 | 0.00 | 0.79 | 0.00 | 81 | 1011.3 |
| 20260507071436 | 10 | 322 | 1.6 | 9.7 | 0.00 | 0.79 | 0.00 | 82 | 1011.5 |
| 20260507070933 | 10 | 337 | 3.2 | 12.9 | 0.00 | 0.79 | 0.00 | 82 | 1011.4 |
| 20260507070433 | 10 | 334 | 3.2 | 12.9 | 0.00 | 0.79 | 0.00 | 82 | 1011.7 |
| 20260507065932 | 10 | 345 | 3.2 | 12.9 | 0.00 | 0.79 | 0.00 | 82 | 1011.7 |
| 20260507065433 | 10 | 315 | 3.2 | 17.7 | 0.00 | 0.79 | 0.00 | 82 | 1011.7 |
| 20260507064932 | 10 | 3 | 3.2 | 17.7 | 0.00 | 0.79 | 0.00 | 82 | 1011.7 |
| 20260507064432 | 10 | 351 | 4.8 | 14.5 | 0.00 | 0.79 | 0.00 | 81 | 1011.8 |
| 20260507063929 | 10 | 332 | 6.4 | 16.1 | 0.00 | 0.79 | 0.00 | 81 | 1011.7 |
| 20260507063430 | 10 | 335 | 6.4 | 16.1 | 0.00 | 0.79 | 0.00 | 81 | 1011.8 |
| 20260507062930 | 10 | 301 | 4.8 | 14.5 | 0.00 | 0.79 | 0.00 | 82 | 1011.8 |
| 20260507062429 | 10 | 307 | 4.8 | 16.1 | 0.00 | 0.79 | 0.00 | 83 | 1011.7 |
| 20260507061928 | 10 | 334 | 4.8 | 16.1 | 0.00 | 0.79 | 0.00 | 83 | 1011.5 |
| 20260507061429 | 10 | 351 | 4.8 | 16.1 | 0.00 | 0.79 | 0.00 | 84 | 1011.5 |
| 20260507060928 | 10 | 351 | 4.8 | 16.1 | 0.00 | 0.79 | 0.00 | 85 | 1011.6 |
| 20260507060427 | 10 | 331 | 4.8 | 16.1 | 0.00 | 0.79 | 0.00 | 84 | 1011.7 |
| 20260507055931 | 10 | 301 | 3.2 | 14.5 | 0.00 | 0.79 | 0.00 | 84 | 1011.7 |
| 20260507055429 | 10 | 345 | 3.2 | 14.5 | 0.00 | 0.79 | 0.00 | 85 | 1011.6 |
| 20260507054930 | 10 | 332 | 4.8 | 12.9 | 0.00 | 0.79 | 0.00 | 85 | 1011.5 |
| 20260507054428 | 10 | 279 | 3.2 | 12.9 | 0.00 | 0.79 | 0.00 | 85 | 1011.7 |
| 20260507053933 | 10 | 351 | 3.2 | 8.0 | 0.00 | 0.79 | 0.00 | 85 | 1011.6 |
| 20260507053428 | 10 | 15 | 3.2 | 9.7 | 0.00 | 0.79 | 0.00 | 85 | 1011.5 |
| 20260507052926 | 10 | 325 | 3.2 | 11.3 | 0.00 | 0.79 | 0.00 | 86 | 1011.6 |
| 20260507052427 | 10 | 20 | 3.2 | 11.3 | 0.00 | 0.79 | 0.00 | 86 | 1011.4 |
| 20260507051927 | 10 | 348 | 3.2 | 8.0 | 0.00 | 0.79 | 0.00 | 86 | 1011.2 |
| 20260507051433 | 10 | 321 | 3.2 | 11.3 | 0.00 | 0.79 | 0.00 | 86 | 1011.3 |
| 20260507050925 | 10 | 326 | 1.6 | 11.3 | 0.00 | 0.79 | 0.00 | 86 | 1011.4 |
| 20260507050421 | 10 | 335 | 1.6 | 9.7 | 0.00 | 0.79 | 0.00 | 86 | 1011.6 |
| 20260507045917 | 10 | 350 | 1.6 | 6.4 | 0.00 | 0.79 | 0.00 | 86 | 1011.5 |
| 20260507045414 | 10 | 331 | 1.6 | 8.0 | 0.00 | 0.79 | 0.00 | 86 | 1011.4 |
| 20260507044906 | 11 | 76 | 3.2 | 8.0 | 0.00 | 0.79 | 0.00 | 86 | 1011.3 |
| 20260507044414 | 11 | 326 | 3.2 | 17.7 | 0.00 | 0.79 | 0.00 | 86 | 1011.3 |
| 20260507043905 | 11 | 300 | 6.4 | 17.7 | 0.00 | 0.79 | 0.00 | 86 | 1011.2 |
| 20260507043406 | 11 | 244 | 6.4 | 16.1 | 0.00 | 0.79 | 0.00 | 86 | 1011.0 |
| 20260507042906 | 11 | 334 | 6.4 | 16.1 | 0.00 | 0.79 | 0.00 | 86 | 1011.2 |
| 20260507042405 | 11 | 319 | 6.4 | 14.5 | 0.00 | 0.79 | 0.00 | 87 | 1011.1 |
| 20260507041913 | 11 | 299 | 6.4 | 17.7 | 0.00 | 0.79 | 0.00 | 87 | 1011.6 |
| 20260507041406 | 11 | 327 | 6.4 | 19.3 | 0.00 | 0.79 | 0.00 | 87 | 1011.7 |
| 20260507040909 | 11 | 327 | 6.4 | 19.3 | 0.00 | 0.79 | 0.00 | 87 | 1011.4 |
| 20260507040406 | 11 | 338 | 6.4 | 20.9 | 0.00 | 0.79 | 0.00 | 87 | 1011.5 |
| 20260507035908 | 11 | 348 | 4.8 | 20.9 | 0.00 | 0.79 | 0.79 | 87 | 1011.5 |
| 20260507035405 | 11 | 350 | 3.2 | 12.9 | 0.00 | 0.79 | 0.79 | 88 | 1011.3 |
| 20260507034905 | 11 | 249 | 3.2 | 9.7 | 0.00 | 0.79 | 0.79 | 88 | 1011.3 |
| 20260507034406 | 11 | 10 | 4.8 | 14.5 | 0.00 | 0.79 | 0.79 | 88 | 1011.2 |
| 20260507033907 | 11 | 51 | 4.8 | 17.7 | 0.00 | 0.79 | 0.79 | 88 | 1011.1 |
| 20260507033404 | 11 | 326 | 4.8 | 17.7 | 0.00 | 0.79 | 0.79 | 89 | 1011.3 |
| 20260507032903 | 11 | 298 | 6.4 | 25.7 | 0.00 | 0.79 | 0.79 | 89 | 1011.1 |
| 20260507032402 | 11 | 330 | 6.4 | 25.7 | 0.00 | 0.79 | 0.79 | 89 | 1011.3 |
| 20260507031900 | 11 | 1 | 4.8 | 17.7 | 0.00 | 0.79 | 0.79 | 89 | 1011.2 |
| 20260507031404 | 11 | 353 | 6.4 | 17.7 | 0.00 | 0.79 | 0.79 | 89 | 1011.3 |
| 20260507030901 | 11 | 308 | 6.4 | 22.5 | 0.00 | 0.79 | 0.79 | 89 | 1011.2 |
| 20260507030400 | 11 | 263 | 4.8 | 22.5 | 0.00 | 0.79 | 0.79 | 89 | 1011.2 |
| 20260507025901 | 11 | 350 | 4.8 | 12.9 | 0.00 | 0.79 | 0.79 | 89 | 1011.2 |
| 20260507025401 | 11 | 348 | 3.2 | 11.3 | 0.00 | 0.79 | 0.79 | 89 | 1011.2 |
| 20260507024904 | 11 | 301 | 3.2 | 19.3 | 0.00 | 0.79 | 0.79 | 89 | 1010.9 |
| 20260507024406 | 11 | 341 | 3.2 | 19.3 | 0.00 | 0.79 | 0.79 | 89 | 1010.8 |
| 20260507023901 | 12 | 348 | 3.2 | 14.5 | 0.00 | 0.79 | 0.79 | 89 | 1010.8 |
| 20260507023401 | 12 | 33 | 4.8 | 19.3 | 0.00 | 0.79 | 0.79 | 89 | 1010.9 |
| 20260507022902 | 12 | 349 | 6.4 | 19.3 | 0.00 | 0.79 | 0.79 | 89 | 1010.7 |
| 20260507022401 | 12 | 355 | 6.4 | 17.7 | 0.00 | 0.79 | 0.79 | 89 | 1010.8 |
| 20260507021857 | 12 | 61 | 6.4 | 17.7 | 0.00 | 0.79 | 0.79 | 89 | 1010.8 |
| 20260507021356 | 12 | 40 | 8.0 | 25.7 | 0.00 | 0.79 | 0.79 | 89 | 1010.7 |
| 20260507020902 | 12 | 329 | 8.0 | 25.7 | 0.00 | 0.79 | 0.79 | 89 | 1010.8 |
| 20260507020356 | 12 | 305 | 8.0 | 22.5 | 0.00 | 0.79 | 0.79 | 89 | 1010.7 |
| 20260507015857 | 12 | 344 | 8.0 | 22.5 | 0.00 | 0.79 | 0.79 | 89 | 1010.7 |
| 20260507015355 | 12 | 3 | 8.0 | 22.5 | 0.00 | 0.79 | 0.79 | 90 | 1010.8 |
| 20260507014854 | 12 | 332 | 6.4 | 22.5 | 0.00 | 0.79 | 0.79 | 90 | 1010.7 |
| 20260507014355 | 12 | 344 | 6.4 | 19.3 | 0.00 | 0.79 | 0.79 | 90 | 1010.9 |
| 20260507013851 | 12 | 318 | 8.0 | 22.5 | 0.00 | 0.79 | 0.79 | 90 | 1010.8 |
| 20260507013352 | 12 | 313 | 8.0 | 22.5 | 0.00 | 0.79 | 0.79 | 90 | 1010.7 |
| 20260507012852 | 12 | 346 | 8.0 | 20.9 | 0.00 | 0.79 | 0.79 | 91 | 1010.7 |
| 20260507012352 | 12 | 325 | 9.7 | 22.5 | 0.00 | 0.79 | 0.79 | 91 | 1010.7 |
| 20260507011850 | 12 | 318 | 9.7 | 22.5 | 0.00 | 0.79 | 0.79 | 91 | 1010.6 |
| 20260507011355 | 12 | 325 | 9.7 | 22.5 | 0.00 | 0.79 | 0.79 | 91 | 1010.5 |
| 20260507010852 | 12 | 262 | 9.7 | 22.5 | 0.00 | 0.79 | 0.79 | 91 | 1010.5 |
| 20260507010354 | 12 | 296 | 8.0 | 20.9 | 0.00 | 0.79 | 0.79 | 92 | 1010.6 |
| 20260507005854 | 12 | 281 | 9.7 | 20.9 | 0.00 | 0.79 | 0.79 | 92 | 1010.8 |
| 20260507005351 | 12 | 267 | 9.7 | 24.1 | 0.00 | 0.79 | 0.79 | 92 | 1010.8 |
| 20260507004853 | 13 | 265 | 8.0 | 24.1 | 0.00 | 0.79 | 0.79 | 92 | 1011.0 |
| 20260507004352 | 13 | 284 | 8.0 | 19.3 | 0.00 | 0.79 | 0.79 | 92 | 1010.9 |
| 20260507003856 | 13 | 330 | 8.0 | 22.5 | 0.00 | 0.79 | 0.79 | 92 | 1010.5 |
| 20260507003352 | 13 | 213 | 8.0 | 22.5 | 0.00 | 0.79 | 0.79 | 92 | 1010.6 |
| 20260507002853 | 13 | 311 | 8.0 | 19.3 | 0.00 | 0.79 | 0.79 | 92 | 1010.6 |
| 20260507002402 | 13 | 293 | 8.0 | 20.9 | 0.00 | 0.79 | 0.79 | 93 | 1010.6 |
| 20260507001905 | 13 | 267 | 8.0 | 20.9 | 0.00 | 0.79 | 0.79 | 93 | 1010.4 |
| 20260507001354 | 13 | 257 | 9.7 | 22.5 | 0.00 | 0.79 | 0.79 | 93 | 1010.4 |
| 20260507000854 | 13 | 257 | 11.3 | 22.5 | 0.00 | 0.79 | 0.79 | 93 | 1010.5 |
| 20260507000402 | 13 | 280 | 11.3 | 22.5 | 0.00 | 0.79 | 0.79 | 93 | 1010.4 |
| 20260506235859 | 13 | 247 | 9.7 | 20.9 | 0.00 | 0.79 | 0.79 | 93 | 1010.4 |
| 20260506235401 | 14 | 243 | 9.7 | 20.9 | 0.03 | 0.79 | 0.79 | 93 | 1010.0 |
| 20260506234854 | 14 | 296 | 9.7 | 19.3 | 0.03 | 0.79 | 0.79 | 93 | 1009.8 |
| 20260506234403 | 15 | 317 | 8.0 | 19.3 | 0.03 | 0.79 | 0.79 | 93 | 1010.0 |
| 20260506233856 | 15 | 311 | 8.0 | 19.3 | 0.03 | 0.79 | 0.79 | 93 | 1010.0 |
| 20260506233357 | 15 | 278 | 8.0 | 22.5 | 0.03 | 0.79 | 0.79 | 94 | 1009.4 |
| 20260506232900 | 15 | 291 | 8.0 | 22.5 | 0.03 | 0.79 | 0.79 | 94 | 1009.3 |
| 20260506232400 | 15 | 263 | 9.7 | 22.5 | 0.03 | 0.79 | 0.79 | 94 | 1009.4 |
| 20260506231858 | 15 | 274 | 8.0 | 22.5 | 0.03 | 0.79 | 0.79 | 94 | 1009.4 |
| 20260506231355 | 15 | 267 | 8.0 | 22.5 | 0.03 | 0.79 | 0.79 | 94 | 1009.4 |
| 20260506230856 | 15 | 261 | 6.4 | 19.3 | 0.03 | 0.79 | 0.79 | 94 | 1009.2 |
| 20260506230405 | 15 | 262 | 6.4 | 16.1 | 0.03 | 0.79 | 0.79 | 94 | 1009.4 |
| 20260506225851 | 15 | 262 | 6.4 | 16.1 | 0.03 | 0.79 | 0.76 | 94 | 1009.5 |
| 20260506225353 | 15 | 269 | 6.4 | 12.9 | 0.00 | 0.76 | 0.76 | 94 | 1009.4 |
| 20260506224852 | 15 | 271 | 4.8 | 14.5 | 0.00 | 0.76 | 0.76 | 94 | 1009.4 |
| 20260506224350 | 15 | 282 | 4.8 | 14.5 | 0.00 | 0.76 | 0.76 | 94 | 1009.4 |
| 20260506223849 | 16 | 271 | 4.8 | 12.9 | 0.00 | 0.76 | 0.76 | 94 | 1009.2 |
| 20260506223349 | 16 | 257 | 4.8 | 12.9 | 0.00 | 0.76 | 0.76 | 94 | 1009.1 |
| 20260506222849 | 16 | 290 | 4.8 | 11.3 | 0.00 | 0.76 | 0.76 | 94 | 1009.0 |
| 20260506222350 | 16 | 262 | 4.8 | 11.3 | 0.00 | 0.76 | 0.76 | 94 | 1009.0 |
| 20260506221851 | 16 | 242 | 3.2 | 11.3 | 0.03 | 0.76 | 0.76 | 94 | 1009.1 |
| 20260506221348 | 16 | 273 | 3.2 | 6.4 | 0.05 | 0.76 | 0.76 | 95 | 1009.1 |
| 20260506220852 | 16 | 273 | 1.6 | 6.4 | 0.05 | 0.76 | 0.76 | 95 | 1009.0 |
| 20260506220346 | 16 | 205 | 0.0 | 0.0 | 0.05 | 0.76 | 0.76 | 94 | 1009.1 |
| 20260506215845 | 16 | 205 | 0.0 | 0.0 | 0.05 | 0.76 | 0.76 | 94 | 1009.2 |
| 20260506215342 | 16 | 205 | 1.6 | 4.8 | 0.05 | 0.76 | 0.76 | 94 | 1009.1 |
| 20260506214839 | 16 | 205 | 1.6 | 4.8 | 0.05 | 0.76 | 0.76 | 94 | 1009.1 |
| 20260506214337 | 16 | 205 | 1.6 | 4.8 | 0.05 | 0.76 | 0.76 | 94 | 1009.1 |
| 20260506213834 | 16 | 204 | 1.6 | 4.8 | 0.05 | 0.76 | 0.76 | 94 | 1009.1 |
| 20260506213335 | 16 | 202 | 1.6 | 4.8 | 0.05 | 0.76 | 0.76 | 94 | 1009.0 |
| 20260506212838 | 16 | 201 | 1.6 | 4.8 | 0.05 | 0.76 | 0.76 | 94 | 1009.0 |
| 20260506212329 | 16 | 201 | 3.2 | 6.4 | 0.05 | 0.76 | 0.76 | 94 | 1008.9 |
| 20260506211826 | 16 | 201 | 1.6 | 6.4 | 0.03 | 0.74 | 0.74 | 94 | 1008.9 |
| 20260506211320 | 16 | 179 | 1.6 | 6.4 | 0.00 | 0.71 | 0.71 | 94 | 1008.8 |
| 20260506210821 | 16 | 177 | 1.6 | 6.4 | 0.00 | 0.71 | 0.71 | 94 | 1008.7 |
| 20260506210316 | 16 | 177 | 1.6 | 3.2 | 0.00 | 0.71 | 0.71 | 94 | 1008.5 |
| 20260506205815 | 16 | 177 | 1.6 | 3.2 | 0.00 | 0.71 | 0.71 | 94 | 1008.6 |
| 20260506205312 | 16 | 177 | 0.0 | 3.2 | 0.00 | 0.71 | 0.71 | 94 | 1008.5 |
| 20260506204810 | 16 | 177 | 0.0 | 3.2 | 0.00 | 0.71 | 0.71 | 94 | 1008.6 |
| 20260506204310 | 16 | 177 | 0.0 | 6.4 | 0.00 | 0.71 | 0.71 | 94 | 1008.6 |
| 20260506203807 | 16 | 177 | 1.6 | 9.7 | 0.00 | 0.71 | 0.71 | 94 | 1008.5 |
| 20260506203309 | 16 | 177 | 1.6 | 9.7 | 0.00 | 0.71 | 0.71 | 94 | 1008.3 |
| 20260506202808 | 16 | 179 | 0.0 | 6.4 | 0.00 | 0.71 | 0.71 | 94 | 1008.4 |
| 20260506202313 | 16 | 179 | 0.0 | 3.2 | 0.00 | 0.71 | 0.71 | 94 | 1008.4 |
| 20260506201811 | 16 | 179 | 1.6 | 8.0 | 0.00 | 0.71 | 0.71 | 94 | 1008.5 |
| 20260506201312 | 16 | 179 | 3.2 | 9.7 | 0.00 | 0.71 | 0.71 | 94 | 1008.5 |
| 20260506200808 | 16 | 174 | 3.2 | 9.7 | 0.00 | 0.71 | 0.71 | 94 | 1008.5 |
| 20260506200306 | 16 | 161 | 3.2 | 6.4 | 0.00 | 0.71 | 0.71 | 94 | 1008.4 |
| 20260506195805 | 16 | 158 | 3.2 | 11.3 | 0.00 | 0.71 | 0.71 | 94 | 1008.5 |
| 20260506195306 | 16 | 151 | 4.8 | 11.3 | 0.00 | 0.71 | 0.71 | 94 | 1008.5 |
| 20260506194801 | 16 | 164 | 4.8 | 11.3 | 0.03 | 0.71 | 0.71 | 94 | 1008.4 |
| 20260506194259 | 16 | 163 | 4.8 | 11.3 | 0.03 | 0.71 | 0.71 | 94 | 1008.4 |
| 20260506193800 | 16 | 152 | 4.8 | 11.3 | 0.03 | 0.71 | 0.71 | 94 | 1008.5 |
| 20260506193258 | 16 | 168 | 4.8 | 11.3 | 0.05 | 0.71 | 0.71 | 94 | 1008.5 |
| 20260506192800 | 16 | 171 | 4.8 | 11.3 | 0.05 | 0.71 | 0.71 | 94 | 1008.5 |
| 20260506192259 | 16 | 176 | 4.8 | 11.3 | 0.05 | 0.71 | 0.71 | 94 | 1008.5 |
| 20260506191759 | 16 | 189 | 3.2 | 9.7 | 0.05 | 0.71 | 0.71 | 94 | 1008.6 |
| 20260506191258 | 16 | 197 | 3.2 | 9.7 | 0.05 | 0.71 | 0.71 | 94 | 1008.5 |
| 20260506190800 | 16 | 223 | 3.2 | 8.0 | 0.08 | 0.71 | 0.71 | 95 | 1008.6 |
| 20260506190257 | 16 | 223 | 3.2 | 8.0 | 0.08 | 0.71 | 0.71 | 95 | 1008.5 |
| 20260506185756 | 16 | 221 | 3.2 | 8.0 | 0.08 | 0.71 | 0.71 | 94 | 1008.6 |
| 20260506185259 | 15 | 222 | 3.2 | 8.0 | 0.10 | 0.71 | 0.69 | 94 | 1008.6 |
| 20260506184756 | 15 | 224 | 3.2 | 8.0 | 0.08 | 0.69 | 0.69 | 94 | 1008.7 |
| 20260506184259 | 15 | 226 | 3.2 | 9.7 | 0.08 | 0.69 | 0.69 | 94 | 1008.7 |
| 20260506183756 | 15 | 230 | 4.8 | 9.7 | 0.08 | 0.69 | 0.69 | 94 | 1008.8 |
| 20260506183253 | 15 | 184 | 6.4 | 11.3 | 0.05 | 0.66 | 0.66 | 94 | 1008.7 |
| 20260506182755 | 15 | 222 | 4.8 | 12.9 | 0.05 | 0.66 | 0.66 | 94 | 1008.8 |
| 20260506182251 | 15 | 213 | 4.8 | 16.1 | 0.05 | 0.66 | 0.66 | 94 | 1008.8 |
| 20260506181749 | 15 | 204 | 4.8 | 16.1 | 0.05 | 0.66 | 0.66 | 94 | 1008.8 |
| 20260506181250 | 15 | 183 | 6.4 | 14.5 | 0.05 | 0.66 | 0.66 | 94 | 1008.8 |
| 20260506180748 | 15 | 208 | 6.4 | 16.1 | 0.03 | 0.64 | 0.64 | 94 | 1008.8 |
| 20260506180248 | 15 | 236 | 6.4 | 17.7 | 0.03 | 0.64 | 0.64 | 94 | 1008.7 |
| 20260506175748 | 15 | 182 | 6.4 | 17.7 | 0.03 | 0.64 | 0.64 | 94 | 1008.8 |
| 20260506175246 | 15 | 195 | 6.4 | 16.1 | 0.00 | 0.61 | 0.61 | 94 | 1008.8 |
| 20260506174749 | 15 | 191 | 6.4 | 17.7 | 0.00 | 0.61 | 0.61 | 94 | 1008.8 |
| 20260506174245 | 15 | 203 | 6.4 | 17.7 | 0.00 | 0.61 | 0.61 | 94 | 1008.8 |
| 20260506173747 | 15 | 234 | 6.4 | 14.5 | 0.00 | 0.61 | 0.61 | 94 | 1008.7 |
| 20260506173246 | 15 | 228 | 6.4 | 16.1 | 0.00 | 0.61 | 0.61 | 94 | 1008.6 |
| 20260506172744 | 15 | 178 | 6.4 | 17.7 | 0.00 | 0.61 | 0.61 | 94 | 1008.7 |
| 20260506172248 | 15 | 195 | 6.4 | 17.7 | 0.00 | 0.61 | 0.61 | 94 | 1008.7 |
| 20260506171743 | 15 | 193 | 6.4 | 17.7 | 0.00 | 0.61 | 0.61 | 94 | 1008.7 |
| 20260506171244 | 15 | 190 | 6.4 | 17.7 | 0.00 | 0.61 | 0.61 | 94 | 1008.7 |
| 20260506170739 | 15 | 195 | 8.0 | 16.1 | 0.00 | 0.61 | 0.61 | 94 | 1008.6 |
| 20260506170240 | 15 | 154 | 9.7 | 19.3 | 0.00 | 0.61 | 0.61 | 94 | 1008.7 |
| 20260506165738 | 15 | 158 | 9.7 | 19.3 | 0.00 | 0.61 | 0.61 | 94 | 1008.7 |
| 20260506165240 | 15 | 155 | 8.0 | 19.3 | 0.00 | 0.61 | 0.61 | 94 | 1008.7 |
| 20260506164740 | 15 | 184 | 9.7 | 22.5 | 0.00 | 0.61 | 0.61 | 94 | 1008.8 |
| 20260506164240 | 15 | 165 | 9.7 | 22.5 | 0.00 | 0.61 | 0.61 | 94 | 1008.7 |
| 20260506163744 | 15 | 139 | 11.3 | 20.9 | 0.00 | 0.61 | 0.61 | 94 | 1008.8 |
| 20260506163239 | 14 | 182 | 12.9 | 20.9 | 0.00 | 0.61 | 0.61 | 94 | 1008.7 |
| 20260506162739 | 14 | 142 | 11.3 | 20.9 | 0.00 | 0.61 | 0.61 | 94 | 1008.8 |
| 20260506162240 | 14 | 176 | 11.3 | 24.1 | 0.00 | 0.61 | 0.61 | 94 | 1008.9 |
| 20260506161739 | 14 | 170 | 11.3 | 24.1 | 0.00 | 0.61 | 0.61 | 94 | 1008.8 |
| 20260506161239 | 14 | 158 | 9.7 | 22.5 | 0.00 | 0.61 | 0.61 | 94 | 1008.8 |
| 20260506160739 | 14 | 182 | 11.3 | 22.5 | 0.00 | 0.61 | 0.61 | 94 | 1008.7 |
| 20260506160238 | 14 | 219 | 11.3 | 20.9 | 0.00 | 0.61 | 0.61 | 94 | 1008.6 |
| 20260506155737 | 14 | 172 | 12.9 | 25.7 | 0.00 | 0.61 | 0.61 | 94 | 1008.7 |
| 20260506155236 | 14 | 191 | 12.9 | 27.4 | 0.00 | 0.61 | 0.61 | 94 | 1008.8 |
| 20260506154734 | 14 | 173 | 12.9 | 27.4 | 0.00 | 0.61 | 0.61 | 94 | 1008.9 |
| 20260506154235 | 14 | 169 | 11.3 | 29.0 | 0.00 | 0.61 | 0.61 | 94 | 1009.0 |
| 20260506153734 | 14 | 184 | 11.3 | 29.0 | 0.03 | 0.61 | 0.61 | 94 | 1008.9 |
| 20260506153235 | 14 | 173 | 12.9 | 22.5 | 0.05 | 0.61 | 0.61 | 94 | 1008.9 |
| 20260506152738 | 14 | 147 | 11.3 | 25.7 | 0.05 | 0.61 | 0.61 | 94 | 1008.7 |
| 20260506152234 | 14 | 160 | 12.9 | 25.7 | 0.05 | 0.61 | 0.61 | 94 | 1008.7 |
| 20260506151735 | 14 | 220 | 12.9 | 30.6 | 0.05 | 0.61 | 0.61 | 94 | 1008.8 |
| 20260506151235 | 14 | 203 | 12.9 | 30.6 | 0.08 | 0.61 | 0.61 | 94 | 1008.6 |
| 20260506150735 | 14 | 136 | 12.9 | 24.1 | 0.10 | 0.61 | 0.61 | 94 | 1008.7 |
| 20260506150235 | 14 | 168 | 12.9 | 24.1 | 0.10 | 0.61 | 0.61 | 94 | 1008.8 |
| 20260506145736 | 14 | 171 | 11.3 | 24.1 | 0.13 | 0.61 | 0.61 | 94 | 1008.9 |
| 20260506145238 | 14 | 155 | 12.9 | 25.7 | 0.13 | 0.61 | 0.61 | 94 | 1008.8 |
| 20260506144735 | 14 | 149 | 12.9 | 25.7 | 0.15 | 0.61 | 0.61 | 93 | 1008.7 |
| 20260506144234 | 14 | 169 | 11.3 | 30.6 | 0.15 | 0.61 | 0.58 | 93 | 1008.8 |
| 20260506143738 | 14 | 159 | 11.3 | 30.6 | 0.15 | 0.58 | 0.58 | 93 | 1008.9 |
| 20260506143234 | 14 | 160 | 9.7 | 20.9 | 0.13 | 0.56 | 0.56 | 94 | 1009.0 |
| 20260506142735 | 14 | 209 | 9.7 | 24.1 | 0.15 | 0.56 | 0.56 | 94 | 1009.2 |
| 20260506142236 | 14 | 160 | 11.3 | 29.0 | 0.18 | 0.56 | 0.56 | 94 | 1009.4 |
| 20260506141735 | 13 | 206 | 11.3 | 29.0 | 0.18 | 0.56 | 0.56 | 93 | 1009.4 |
| 20260506141234 | 13 | 178 | 9.7 | 27.4 | 0.18 | 0.53 | 0.53 | 93 | 1009.5 |
| 20260506140736 | 13 | 201 | 11.3 | 30.6 | 0.15 | 0.51 | 0.51 | 93 | 1009.4 |